Retour au catalogue

PRATHAM

ActifScienceSSO
NORAD 41783·PAYLOAD·🇮🇳 India

Lancé Sep 26, 2016 depuis Satish Dhawan Space Centre

Loading…

Prochains Passages (prochaines 24 heures)

TLE

FraisSource: Space-Track

Époque: Sep 14, 2026, 10:39 UTC

1 41783U 16059A   26257.44402367  .00000464  00000-0  90167-4 0  9997
2 41783  97.8402 250.4179 0029848 295.7407  64.0718 14.67295421532601

Suivez PRATHAM en temps réel avec AllMySat

Download on the App Store